This is the latest recevied weather packets stored in our database for station/object G4KVI. If no packets are shown the sender has not sent any weather packets the latest 10 day(s).
| Time | Temp. | Humidity | Pressure | Rain* | Wind** | Luminosity | Snow |
|---|---|---|---|---|---|---|---|
| 1787860803 | 18.33° C | 80% | 1009.6 hPa | 0 mm | - | 0 W/m² | - |
| 1787860503 | 18.33° C | 80% | 1009.4 hPa | 0 mm | - | 0 W/m² | - |
| 1787860203 | 18.33° C | 80% | 1009.7 hPa | 0 mm | - | 0 W/m² | - |
| 1787859903 | 18.33° C | 79% | 1009.6 hPa | 0 mm | - | 0 W/m² | - |
| 1787859603 | 18.33° C | 79% | 1009.5 hPa | 0 mm | - | 0 W/m² | - |
| 1787859303 | 18.33° C | 79% | 1009.5 hPa | 0 mm | - | 0 W/m² | - |
| 1787859003 | 18.33° C | 78% | 1009.4 hPa | 0 mm | - | 0 W/m² | - |
| 1787858703 | 18.33° C | 78% | 1009.4 hPa | 0 mm | - | 0 W/m² | - |
| 1787858403 | 18.89° C | 77% | 1009.3 hPa | 0 mm | - | 0 W/m² | - |
| 1787858103 | 18.89° C | 76% | 1009.6 hPa | 0 mm | - | 1 W/m² | - |
| 1787857803 | 18.89° C | 76% | 1009.4 hPa | 0 mm | - | 2 W/m² | - |
| 1787857503 | 18.89° C | 75% | 1009.2 hPa | 0 mm | - | 4 W/m² | - |
| 1787857203 | 18.89° C | 74% | 1009.3 hPa | 0 mm | - | 7 W/m² | - |
| 1787856904 | 19.44° C | 74% | 1009.1 hPa | 0 mm | - | 11 W/m² | - |
| 1787856604 | 19.44° C | 73% | 1009 hPa | 0 mm | - | 13 W/m² | - |
| 1787856304 | 19.44° C | 73% | 1008.9 hPa | 0 mm | - | 15 W/m² | - |
| 1787856011 | 19.44° C | 72% | 1009.3 hPa | 0 mm | - | 19 W/m² | - |
| 1787855704 | 19.44° C | 71% | 1008.8 hPa | 0 mm | - | 25 W/m² | - |
| 1787855404 | 20° C | 71% | 1008.9 hPa | 0 mm | - | 32 W/m² | - |
| 1787855104 | 20° C | 70% | 1009 hPa | 0 mm | - | 35 W/m² | - |
| 1787854805 | 20° C | 69% | 1009.1 hPa | 0 mm | - | 33 W/m² | - |
| 1787854504 | 20° C | 68% | 1008.8 hPa | 0 mm | - | 43 W/m² | - |
| 1787854204 | 20° C | 68% | 1009.1 hPa | 0 mm | - | 43 W/m² | - |
| 1787853904 | 20.56° C | 67% | 1009.5 hPa | 0 mm | - | 51 W/m² | - |
| 1787853604 | 20.56° C | 67% | 1009.2 hPa | 0 mm | - | 59 W/m² | - |
* Rain latest hour (hover to see other rain measurements)
** Current wind speed in m/s (hover to see current wind gust speed)